DW8343 Weather Reports


time (UTC)temp
F
wind
direction
speed
knots
gust
knots
rain 1hr
in
rain 24hr
in
rain mn
in
humidity
%
barometer
mb
20260506194622 62 120 0.9 1.7 0.00 0.00 0.00 53 1018.2
20260506194119 63 35 0.9 1.7 0.00 0.00 0.00 54 1018.2
20260506193617 63 218 0.9 2.6 0.00 0.00 0.00 53 1018.3
20260506193114 61 43 0.9 1.7 0.00 0.00 0.00 55 1018.2
20260506192610 61 130 1.7 3.5 0.00 0.00 0.00 54 1018.4
20260506192106 61 29 0.9 2.6 0.00 0.00 0.00 55 1018.5
20260506191603 61 27 0.0 2.6 0.00 0.00 0.00 56 1018.3
20260506191059 61 97 1.7 3.5 0.00 0.00 0.00 55 1018.5
20260506190556 62 4 0.0 0.9 0.00 0.00 0.00 54 1018.4
20260506190053 62 75 0.0 1.7 0.00 0.00 0.00 55 1018.7
20260506185550 62 75 1.7 1.7 0.00 0.00 0.00 54 1018.7
20260506185047 61 58 0.9 3.5 0.00 0.00 0.00 55 1018.5
20260506184544 61 52 0.0 5.2 0.00 0.00 0.00 56 1018.5
20260506184042 60 16 2.6 3.5 0.00 0.00 0.00 55 1018.8
20260506183537 60 79 2.6 3.5 0.00 0.00 0.00 55 1018.7
20260506183034 61 15 0.9 2.6 0.00 0.00 0.00 56 1018.7
20260506182532 61 32 1.7 2.6 0.00 0.00 0.00 55 1018.9
20260506182029 61 11 0.0 2.6 0.00 0.00 0.00 56 1018.9
20260506181526 60 6 1.7 5.2 0.00 0.00 0.00 55 1018.8
20260506181023 61 41 2.6 3.5 0.00 0.00 0.00 55 1019.0
20260506180519 61 207 1.7 2.6 0.00 0.00 0.00 55 1019.0
20260506180011 61 116 2.6 5.2 0.00 0.00 0.00 56 1019.0
20260506175508 62 359 1.7 3.5 0.00 0.00 0.00 54 1019.3
20260506175004 60 31 0.0 2.6 0.00 0.00 0.00 57 1019.2
20260506174503 60 55 1.7 1.7 0.00 0.00 0.00 55 1019.2
20260506173958 60 29 2.6 6.1 0.00 0.00 0.00 56 1019.2
20260506173456 61 173 4.3 6.1 0.00 0.00 0.00 53 1019.4
20260506172952 63 153 1.7 5.2 0.00 0.00 0.00 53 1019.3
20260506172450 63 172 2.6 3.5 0.00 0.00 0.00 52 1019.0
20260506171940 60 30 0.0 1.7 0.00 0.00 0.00 57 1019.2
20260506171437 62 19 1.7 2.6 0.00 0.00 0.00 54 1019.3
20260506170930 62 32 1.7 2.6 0.00 0.00 0.00 55 1019.2
20260506170425 62 39 0.0 1.7 0.00 0.00 0.00 56 1019.3
20260506165919 60 52 3.5 3.5 0.00 0.00 0.00 54 1019.2
20260506165416 62 37 3.5 5.2 0.00 0.00 0.00 54 1019.3
20260506164907 62 288 0.0 1.7 0.00 0.00 0.00 56 1019.3
20260506164403 60 338 0.0 7.8 0.00 0.00 0.00 55 1019.5
20260506163902 61 7 2.6 7.0 0.00 0.00 0.00 53 1019.5
20260506163401 61 21 3.5 7.0 0.00 0.00 0.00 54 1019.5
20260506162856 61 347 2.6 6.1 0.00 0.00 0.00 55 1019.5
20260506162355 61 45 1.7 3.5 0.00 0.00 0.00 55 1019.5
20260506161852 60 32 0.0 5.2 0.00 0.00 0.00 58 1019.4
20260506161349 60 43 0.9 6.1 0.00 0.00 0.00 57 1019.3
20260506160847 59 211 0.9 5.2 0.00 0.00 0.00 59 1019.3
20260506160343 58 22 0.9 2.6 0.00 0.00 0.00 59 1019.2
20260506155842 58 151 1.7 7.0 0.00 0.00 0.00 59 1019.2
20260506155338 56 11 0.9 2.6 0.00 0.00 0.00 63 1019.2
20260506153450 56 11 0.9 2.6 0.00 0.00 0.00 63 1019.2
20260506152948 56 341 1.7 6.1 0.00 0.00 0.00 62 1019.0
20260506152444 55 16 2.6 7.0 0.00 0.00 0.00 62 1019.0
20260506151943 56 267 2.6 7.8 0.00 0.00 0.00 63 1019.0
20260506151440 56 34 4.3 5.2 0.00 0.00 0.00 64 1019.3
20260506150938 55 72 1.7 3.5 0.00 0.00 0.00 66 1019.3
20260506150433 54 50 0.9 3.5 0.00 0.00 0.00 67 1019.0
20260506145930 54 26 1.7 2.6 0.00 0.00 0.00 68 1019.3
20260506145427 54 351 1.7 3.5 0.00 0.00 0.00 68 1019.0
20260506144925 52 16 0.9 2.6 0.00 0.00 0.00 71 1018.9
20260506144421 52 19 0.9 2.6 0.00 0.00 0.00 73 1018.7
20260506143919 52 29 1.7 5.2 0.00 0.00 0.00 74 1018.9
20260506143416 51 259 1.7 2.6 0.00 0.00 0.00 76 1018.5
20260506142914 51 7 0.9 5.2 0.00 0.00 0.00 76 1018.4
20260506142412 51 20 0.9 1.7 0.00 0.00 0.00 76 1018.7
20260506141909 51 66 0.0 0.9 0.00 0.00 0.00 77 1018.7
20260506141407 51 179 1.7 6.1 0.00 0.00 0.00 76 1018.8
20260506140905 51 50 0.9 1.7 0.00 0.00 0.00 77 1018.6
20260506140402 51 15 0.9 1.7 0.00 0.00 0.00 76 1018.7
20260506135859 51 38 0.9 3.5 0.00 0.00 0.00 77 1018.7
20260506135356 51 25 0.0 1.7 0.00 0.00 0.00 78 1018.5
20260506134852 50 17 0.9 0.9 0.00 0.00 0.00 79 1018.8
20260506134348 50 277 0.0 3.5 0.00 0.00 0.00 80 1018.7
20260506133845 49 22 0.9 3.5 0.00 0.00 0.00 80 1018.7
20260506133342 49 20 0.9 1.7 0.00 0.00 0.00 81 1019.0
20260506132839 49 187 0.9 2.6 0.00 0.00 0.00 80 1018.9
20260506132336 49 288 0.0 1.7 0.00 0.00 0.00 82 1018.8
20260506131834 49 153 1.7 3.5 0.00 0.00 0.00 82 1018.7
20260506131330 49 19 0.9 1.7 0.00 0.00 0.00 82 1018.8
20260506130827 49 17 0.0 1.7 0.00 0.00 0.00 82 1018.5
20260506130324 49 3 0.0 0.9 0.00 0.00 0.00 82 1018.7
20260506125822 49 18 0.9 1.7 0.00 0.00 0.00 82 1018.5
20260506125320 49 271 0.0 1.7 0.00 0.00 0.00 83 1018.7
20260506124818 49 2 0.9 1.7 0.00 0.00 0.00 83 1018.5
20260506124315 49 67 0.0 1.7 0.00 0.00 0.00 83 1018.4
20260506123812 48 286 0.9 1.7 0.00 0.00 0.00 84 1018.1
20260506123311 48 16 0.0 0.0 0.00 0.00 0.00 84 1018.1
20260506122807 48 42 0.0 0.9 0.00 0.00 0.00 84 1018.1
20260506122306 48 302 0.0 0.9 0.00 0.00 0.00 84 1017.9
20260506121802 48 183 0.9 1.7 0.00 0.00 0.00 84 1017.7
20260506121259 48 49 0.9 0.9 0.00 0.00 0.00 84 1017.7
20260506120756 48 50 0.9 5.2 0.00 0.00 0.00 84 1017.5
20260506120254 48 11 0.9 2.6 0.00 0.00 0.00 84 1017.5
20260506115751 48 7 0.0 0.9 0.00 0.00 0.00 84 1017.7
20260506115250 48 21 0.0 0.9 0.00 0.00 0.00 84 1017.5
20260506114747 48 307 0.0 3.5 0.00 0.00 0.00 84 1017.5
20260506114244 48 21 0.9 1.7 0.00 0.00 0.00 84 1017.5
20260506113743 48 69 0.9 0.9 0.00 0.00 0.00 84 1017.3
20260506113240 48 16 0.9 2.6 0.00 0.00 0.00 84 1017.3
20260506112736 48 5 0.0 0.9 0.00 0.00 0.00 84 1017.4
20260506112234 48 9 0.9 0.9 0.00 0.00 0.00 84 1016.9
20260506111731 48 326 0.0 0.0 0.00 0.00 0.00 83 1017.2
20260506111229 48 2 0.0 0.0 0.00 0.00 0.00 83 1017.2
20260506110726 48 2 0.0 0.9 0.00 0.00 0.00 83 1017.1
20260506110224 48 83 0.9 5.2 0.00 0.00 0.00 83 1016.8
20260506105720 48 40 0.0 1.7 0.00 0.00 0.00 82 1016.9
20260506105217 49 321 0.0 0.9 0.00 0.00 0.00 82 1017.5
20260506104715 49 261 0.0 0.0 0.00 0.00 0.00 81 1017.9
20260506104212 49 1 0.0 0.9 0.00 0.00 0.00 81 1018.0
20260506103709 49 177 0.9 0.9 0.00 0.00 0.00 81 1018.1
20260506103206 49 15 0.0 0.9 0.00 0.00 0.00 81 1018.0
20260506102704 49 15 0.0 0.9 0.00 0.00 0.00 80 1017.5
20260506102202 49 16 0.9 0.9 0.00 0.00 0.00 80 1017.6
20260506101658 49 15 0.0 0.9 0.00 0.00 0.00 80 1017.6
20260506101155 49 15 0.0 0.0 0.00 0.00 0.00 80 1017.6
20260506100653 49 15 0.0 0.0 0.00 0.00 0.00 81 1017.7
20260506100151 49 15 0.0 0.0 0.00 0.00 0.00 81 1017.4
20260506095649 49 15 0.0 0.0 0.00 0.00 0.00 80 1017.4
20260506095145 49 15 0.0 0.9 0.00 0.00 0.00 80 1017.1
20260506094643 49 15 0.0 0.9 0.00 0.00 0.00 80 1017.1
20260506094141 49 15 0.0 1.7 0.00 0.00 0.00 80 1016.9
20260506093639 49 15 0.0 0.9 0.00 0.00 0.00 80 1016.7
20260506093136 49 15 0.0 0.0 0.00 0.00 0.00 80 1016.6
20260506092634 49 15 0.0 0.9 0.00 0.00 0.00 80 1016.4
20260506092131 49 15 0.0 0.9 0.00 0.00 0.00 79 1016.4
20260506091629 49 15 0.0 0.9 0.00 0.00 0.00 79 1016.3
20260506091126 49 15 0.0 0.0 0.00 0.00 0.00 78 1016.5
20260506090624 49 15 0.0 0.9 0.00 0.00 0.00 78 1016.4
20260506090120 49 15 0.0 0.9 0.00 0.00 0.00 78 1016.3
20260506085617 49 15 0.0 0.9 0.00 0.00 0.00 77 1016.5
20260506085113 49 15 0.0 0.9 0.00 0.00 0.00 77 1016.3
20260506084610 49 15 0.9 0.9 0.00 0.00 0.00 77 1016.3
20260506084106 49 16 0.0 0.9 0.00 0.00 0.00 77 1016.3
20260506083604 49 16 0.9 0.9 0.00 0.00 0.00 77 1016.1
20260506083101 49 16 0.9 0.9 0.00 0.00 0.00 77 1015.9
20260506082557 49 16 0.0 0.9 0.00 0.00 0.00 77 1015.3
20260506082054 49 16 0.0 1.7 0.00 0.00 0.00 77 1015.4
20260506081552 49 33 0.9 0.9 0.00 0.00 0.00 76 1015.4
20260506081049 49 33 0.0 0.9 0.00 0.00 0.00 76 1015.5
20260506080547 49 351 0.0 0.0 0.00 0.00 0.00 76 1015.4
20260506073027 49 258 0.0 1.7 0.00 0.00 0.00 75 1014.9
20260506072524 49 3 1.7 3.5 0.00 0.00 0.00 75 1014.8
20260506072022 49 143 0.0 0.9 0.00 0.00 0.00 75 1014.8
20260506071520 49 137 0.0 0.9 0.00 0.00 0.00 75 1014.7
20260506071017 49 5 0.0 0.9 0.00 0.00 0.00 75 1014.6
20260506070514 49 136 0.0 0.9 0.00 0.00 0.00 75 1014.6
20260506062451 49 343 0.0 1.7 0.00 0.00 0.00 74 1015.1
20260506061947 49 34 0.0 2.6 0.00 0.00 0.00 74 1015.0
20260506061444 49 31 0.9 1.7 0.00 0.00 0.00 74 1014.9
20260506060942 49 37 0.0 1.7 0.00 0.00 0.00 74 1014.9
20260506060440 49 200 0.0 0.9 0.00 0.00 0.00 74 1014.9
20260506051412 49 22 0.9 1.7 0.00 0.00 0.00 73 1014.9
20260506050908 49 48 0.9 1.7 0.00 0.00 0.00 73 1014.6
20260506050406 49 35 0.9 0.9 0.00 0.00 0.00 73 1014.6
20260506044856 49 33 0.0 0.9 0.00 0.00 0.00 72 1014.7
20260506044354 49 352 0.0 2.6 0.00 0.00 0.00 72 1014.9
20260506043851 49 48 0.0 0.9 0.00 0.00 0.00 73 1015.1
20260506043348 49 37 0.9 0.9 0.00 0.00 0.00 74 1014.9
20260506042847 49 34 0.0 1.7 0.00 0.00 0.00 74 1014.7
20260506042345 49 254 1.7 2.6 0.00 0.00 0.00 74 1014.9
20260506041844 49 101 0.0 0.9 0.00 0.00 0.00 74 1014.7
20260506041340 49 9 0.0 2.6 0.00 0.00 0.00 74 1014.8
20260506040837 49 70 0.9 3.5 0.00 0.00 0.00 75 1014.9
20260506040335 49 49 0.9 1.7 0.00 0.00 0.00 75 1014.8
20260506035831 49 268 0.9 0.9 0.00 0.00 0.00 76 1014.8
20260506035329 49 238 0.9 2.6 0.00 0.00 0.00 76 1014.9
20260506034825 49 344 0.0 0.9 0.00 0.00 0.00 77 1014.8
20260506034323 49 167 0.9 6.1 0.00 0.00 0.00 78 1014.8
20260506033820 49 296 2.6 2.6 0.00 0.00 0.00 79 1014.4
20260506033316 49 29 0.0 1.7 0.00 0.00 0.00 80 1014.3
20260506032813 49 352 1.7 2.6 0.00 0.00 0.00 80 1014.3
20260506032310 49 22 0.9 5.2 0.00 0.00 0.00 81 1013.8
20260506031807 49 92 0.9 1.7 0.00 0.00 0.00 82 1013.9
20260506031304 49 16 0.9 2.6 0.00 0.00 0.00 82 1013.8
20260506030802 49 222 0.9 3.5 0.00 0.00 0.00 81 1013.6
20260506030300 49 11 0.0 0.9 0.00 0.00 0.00 82 1013.9
20260506025757 49 2 0.9 1.7 0.00 0.00 0.00 82 1013.8
20260506025253 49 28 0.9 1.7 0.00 0.00 0.00 82 1013.9
20260506024750 49 335 1.7 2.6 0.00 0.00 0.00 83 1013.8
20260506024247 49 31 0.9 1.7 0.00 0.00 0.00 82 1014.0
20260506023743 49 48 0.9 1.7 0.00 0.00 0.00 82 1014.3
20260506023240 49 281 0.9 1.7 0.00 0.00 0.00 82 1014.4
20260506022737 49 14 0.9 2.6 0.00 0.00 0.00 82 1014.1
20260506022235 49 80 0.9 2.6 0.00 0.00 0.00 83 1013.9
20260506021732 49 28 0.0 1.7 0.00 0.00 0.00 84 1014.0
20260506021229 49 28 0.0 0.9 0.00 0.00 0.00 84 1013.9
20260506020726 49 20 0.0 2.6 0.00 0.00 0.00 84 1013.8
20260506020224 49 45 1.7 1.7 0.00 0.00 0.00 84 1013.7
20260506015721 49 348 0.0 0.9 0.00 0.00 0.00 84 1013.4
20260506015219 49 38 0.0 0.9 0.00 0.00 0.00 84 1013.8
20260506014715 49 31 0.0 1.7 0.00 0.00 0.00 84 1013.5
20260506014211 49 17 0.0 3.5 0.00 0.00 0.00 84 1013.4
20260506013709 50 61 0.9 0.9 0.00 0.00 0.00 83 1013.2
20260506013206 50 355 0.9 0.9 0.00 0.00 0.00 83 1013.3
20260506012702 50 333 0.9 1.7 0.00 0.00 0.00 82 1013.3
20260506012159 50 11 0.9 1.7 0.00 0.00 0.00 82 1013.3
20260506011657 50 5 0.9 1.7 0.00 0.00 0.00 82 1013.1
20260506011152 50 32 0.0 1.7 0.00 0.00 0.00 82 1013.2
20260506010651 50 284 0.0 0.9 0.00 0.00 0.00 82 1013.1
20260506010148 50 9 0.9 0.9 0.00 0.00 0.00 82 1012.7
20260506005645 50 299 0.9 1.7 0.00 0.00 0.00 82 1012.6
20260506005142 50 16 1.7 1.7 0.00 0.00 0.00 82 1012.4
20260506004638 50 219 1.7 1.7 0.00 0.00 0.00 82 1012.3
20260506004135 50 213 0.0 1.7 0.00 0.00 0.00 82 1012.2
20260506003632 50 13 0.0 1.7 0.00 0.00 0.00 81 1011.8
20260506003128 50 247 0.0 1.7 0.00 0.00 0.00 81 1012.0
20260506002619 51 21 0.9 1.7 0.00 0.00 0.00 81 1012.1
20260506002115 51 350 0.0 2.6 0.00 0.00 0.00 80 1012.0
20260506001611 51 28 0.0 2.6 0.00 0.00 0.00 80 1011.8
20260506001108 51 12 1.7 1.7 0.00 0.00 0.00 80 1011.9
20260506000606 51 333 0.0 1.7 0.00 0.00 0.00 80 1012.1
20260505235601 51 344 0.0 2.6 0.00 0.00 0.00 79 1011.9
20260505235057 51 18 0.9 2.6 0.00 0.00 0.00 78 1011.7
20260505234554 52 20 0.9 2.6 0.00 0.00 0.00 77 1011.8
20260505234051 52 17 0.9 1.7 0.00 0.00 0.00 77 1011.8
20260505233548 52 39 0.0 0.9 0.00 0.00 0.00 77 1012.0
20260505233045 52 31 0.0 0.9 0.00 0.00 0.00 77 1012.4
20260505232543 52 179 0.9 0.9 0.00 0.00 0.00 77 1012.6
20260505232040 52 164 0.0 0.9 0.00 0.00 0.00 76 1012.3
20260505231537 52 24 0.9 1.7 0.00 0.00 0.00 76 1012.2
20260505231037 52 260 1.7 1.7 0.00 0.00 0.00 76 1012.0
20260505230534 52 39 0.9 1.7 0.00 0.00 0.00 76 1011.4
20260505230030 52 20 0.9 2.6 0.00 0.00 0.00 75 1011.7
20260505225527 53 309 0.9 1.7 0.00 0.00 0.00 75 1011.7
20260505225022 53 15 0.0 0.9 0.00 0.00 0.00 75 1011.5
20260505224520 53 2 0.0 1.7 0.00 0.00 0.00 76 1011.6
20260505224017 53 18 1.7 1.7 0.00 0.00 0.00 75 1011.4
20260505223514 53 116 0.9 1.7 0.00 0.00 0.00 75 1011.6
20260505223010 53 351 3.5 7.0 0.00 0.00 0.00 75 1011.7
20260505222507 53 93 1.7 1.7 0.00 0.00 0.00 76 1011.3
20260505222002 53 5 0.0 1.7 0.00 0.00 0.00 76 1010.9
20260505221500 53 39 0.9 1.7 0.00 0.00 0.00 76 1011.1
20260505220957 53 184 0.9 1.7 0.00 0.00 0.00 75 1011.0
20260505220454 53 321 1.7 2.6 0.00 0.00 0.00 75 1011.2
20260505215951 54 16 0.0 2.6 0.00 0.00 0.00 75 1011.1
20260505215449 54 115 0.9 1.7 0.00 0.00 0.00 75 1011.0
20260505214947 54 16 0.9 0.9 0.00 0.00 0.00 74 1010.5
20260505214445 54 45 0.9 2.6 0.00 0.00 0.00 74 1010.4
20260505213942 54 347 0.0 1.7 0.00 0.00 0.00 75 1010.3
20260505213439 54 20 0.9 3.5 0.00 0.00 0.00 75 1010.5
20260505212935 55 17 0.9 2.6 0.00 0.00 0.00 74 1010.6
20260505212432 55 12 0.0 2.6 0.00 0.00 0.00 74 1010.8
20260505211928 55 318 0.9 2.6 0.00 0.00 0.00 74 1010.9
20260505211426 54 22 0.9 2.6 0.00 0.00 0.00 74 1010.1
20260505210922 55 346 1.7 2.6 0.00 0.00 0.00 73 1010.4
20260505210420 54 275 0.9 2.6 0.00 0.00 0.00 75 1010.0
20260505205916 54 280 1.7 2.6 0.00 0.00 0.00 75 1010.1
20260505205415 54 15 0.0 2.6 0.00 0.00 0.00 75 1010.5
20260505204911 54 10 0.0 1.7 0.00 0.00 0.00 75 1011.0
20260505204409 55 21 0.0 1.7 0.00 0.00 0.00 75 1011.4
20260505203906 55 45 0.9 1.7 0.00 0.00 0.00 76 1010.9
20260505203403 55 347 0.0 3.5 0.00 0.00 0.00 75 1010.4
20260505202859 55 28 0.9 1.7 0.00 0.00 0.00 75 1010.5
20260505202355 55 282 1.7 1.7 0.00 0.00 0.00 75 1010.2
20260505201852 55 38 0.9 1.7 0.00 0.00 0.00 75 1010.1
20260505201349 55 24 0.9 2.6 0.00 0.00 0.00 76 1009.9
20260505200847 55 28 1.7 5.2 0.00 0.00 0.00 76 1010.1
20260505200344 55 342 0.9 1.7 0.00 0.00 0.00 76 1010.2
20260505195840 55 24 0.0 1.7 0.00 0.00 0.00 77 1010.1
20260505195337 55 60 1.7 2.6 0.00 0.00 0.00 78 1010.1